When you browse on this site, cookies collect data to enhance your experience and personalize the content and advertising you see.
Visit our Privacy Policy to learn more. By continuing to use the site, you agree to this use of cookies and data.
  • In Hungary
  • List of Countries
  • For 7 days
  • Water Temperature
  • Satellite Maps
  • Weather Map
  • News
  • Weather Widgets
  • user-avatar
    Login

    Hourly Weather Greensboro

    Today, 24 February, Sunday

    Time Temperature Precipitation Wind Pressure Humidity
    00:00 +6°C° 0 mm 1 mps 741 mmHg 96%
    01:00 +6°C° 0 mm 1 mps 740 mmHg 96%
    02:00 +7°C° 0.2 mm 1 mps 739 mmHg 97%
    03:00 +6°C° 0.2 mm 2 mps 737 mmHg 97%
    04:00 +7°C° 0.2 mm 3 mps 736 mmHg 98%
    05:00 +8°C° 0.6 mm 4 mps 736 mmHg 97%
    06:00 +11°C° 0.6 mm 4 mps 735 mmHg 97%
    07:00 +12°C° 0.6 mm 5 mps 735 mmHg 96%
    08:00 +13°C° 0.4 mm 5 mps 734 mmHg 96%
    09:00 +14°C° 0.4 mm 5 mps 733 mmHg 95%
    10:00 +15°C° 0.4 mm 6 mps 732 mmHg 95%
    11:00 +17°C° 0 mm 6 mps 733 mmHg 81%
    12:00 +18°C° 0 mm 7 mps 733 mmHg 68%
    13:00 +21°C° 0 mm 8 mps 733 mmHg 55%
    14:00 +18°C° 0 mm 8 mps 733 mmHg 51%
    15:00 +16°C° 0 mm 9 mps 734 mmHg 47%
    16:00 +13°C° 0 mm 9 mps 734 mmHg 43%
    17:00 +11°C° 0 mm 8 mps 735 mmHg 47%
    18:00 +9°C° 0 mm 6 mps 737 mmHg 51%
    19:00 +7°C° 0 mm 5 mps 738 mmHg 56%
    20:00 +6°C° 0 mm 5 mps 738 mmHg 56%
    21:00 +5°C° 0 mm 4 mps 739 mmHg 57%
    22:00 +4°C° 0 mm 4 mps 739 mmHg 58%
    23:00 +4°C° 0 mm 4 mps 740 mmHg 56%

    Tomorrow, 25 February, Monday

    Time Temperature Precipitation Wind Pressure Humidity
    00:00 +3°C° 0 mm 4 mps 740 mmHg 54%
    01:00 +3°C° 0 mm 4 mps 740 mmHg 51%
    02:00 +3°C° 0 mm 4 mps 741 mmHg 51%
    03:00 +1°C° 0 mm 4 mps 741 mmHg 50%
    04:00 +1°C° 0 mm 4 mps 742 mmHg 50%
    05:00 +1°C° 0 mm 4 mps 743 mmHg 50%
    06:00 0°C° 0 mm 4 mps 743 mmHg 49%
    07:00 +1°C° 0 mm 3 mps 744 mmHg 49%
    08:00 +3°C° 0 mm 4 mps 745 mmHg 43%
    09:00 +3°C° 0 mm 5 mps 746 mmHg 36%
    10:00 +5°C° 0 mm 6 mps 747 mmHg 29%
    11:00 +8°C° 0 mm 6 mps 747 mmHg 28%
    12:00 +9°C° 0 mm 6 mps 747 mmHg 27%
    13:00 +11°C° 0 mm 6 mps 747 mmHg 26%
    14:00 +12°C° 0 mm 5 mps 747 mmHg 27%
    15:00 +12°C° 0 mm 5 mps 747 mmHg 29%
    16:00 +12°C° 0 mm 5 mps 747 mmHg 30%
    17:00 +10°C° 0 mm 4 mps 747 mmHg 36%
    18:00 +8°C° 0 mm 3 mps 748 mmHg 41%
    19:00 +7°C° 0 mm 2 mps 748 mmHg 46%
    20:00 +6°C° 0 mm 2 mps 749 mmHg 48%
    21:00 +5°C° 0 mm 2 mps 749 mmHg 49%
    22:00 +5°C° 0 mm 1 mps 750 mmHg 50%
    23:00 +5°C° 0 mm 1 mps 750 mmHg 51%

    Day after tomorrow, 26 February, Tuesday

    Time Temperature Precipitation Wind Pressure Humidity
    00:00 +4°C° 0 mm 1 mps 750 mmHg 53%
    01:00 +4°C° 0 mm 1 mps 750 mmHg 54%
    02:00 +4°C° 0 mm 1 mps 750 mmHg 55%
    03:00 +2°C° 0 mm 0 mps 749 mmHg 56%
    04:00 +2°C° 0 mm 0 mps 749 mmHg 57%
    05:00 +2°C° 0 mm 0 mps 750 mmHg 58%
    06:00 +1°C° 0 mm 0 mps 750 mmHg 59%
    07:00 +1°C° 0 mm 0 mps 750 mmHg 60%
    08:00 +4°C° 0 mm 0 mps 751 mmHg 55%
    09:00 +7°C° 0 mm 1 mps 751 mmHg 51%
    10:00 +9°C° 0 mm 1 mps 751 mmHg 46%
    11:00 +11°C° 0 mm 1 mps 751 mmHg 45%
    12:00 +12°C° 0 mm 1 mps 750 mmHg 43%
    13:00 +14°C° 0 mm 2 mps 750 mmHg 42%
    14:00 +14°C° 0 mm 2 mps 749 mmHg 42%
    15:00 +15°C° 0 mm 2 mps 749 mmHg 42%
    16:00 +15°C° 0 mm 2 mps 748 mmHg 42%
    17:00 +13°C° 0 mm 2 mps 748 mmHg 49%
    18:00 +11°C° 0 mm 1 mps 748 mmHg 55%
    19:00 +10°C° 0 mm 1 mps 748 mmHg 62%
    20:00 +9°C° 0 mm 1 mps 749 mmHg 65%
    21:00 +8°C° 0 mm 1 mps 749 mmHg 67%
    22:00 +8°C° 0 mm 1 mps 749 mmHg 70%
    23:00 +7°C° 0 mm 1 mps 749 mmHg 72%

    27 February, Wednesday

    Time Temperature Precipitation Wind Pressure Humidity
    00:00 +7°C° 0 mm 1 mps 749 mmHg 74%
    01:00 +6°C° 0 mm 1 mps 748 mmHg 76%
    02:00 +6°C° 0 mm 1 mps 748 mmHg 79%
    03:00 +6°C° 0 mm 1 mps 748 mmHg 81%
    04:00 +4°C° 0 mm 0 mps 748 mmHg 83%
    05:00 +5°C° 0 mm 1 mps 748 mmHg 85%
    06:00 +5°C° 0 mm 1 mps 748 mmHg 86%
    07:00 +3°C° 0 mm 2 mps 748 mmHg 87%
    08:00 +4°C° 0 mm 2 mps 748 mmHg 83%
    09:00 +5°C° 0 mm 2 mps 748 mmHg 79%
    10:00 +7°C° 0 mm 1 mps 748 mmHg 75%
    11:00 +9°C° 0 mm 1 mps 748 mmHg 71%
    12:00 +10°C° 0 mm 2 mps 747 mmHg 68%
    13:00 +14°C° 0 mm 2 mps 746 mmHg 65%
    14:00 +13°C° 0.3 mm 1 mps 745 mmHg 73%
    15:00 +12°C° 0.3 mm 1 mps 744 mmHg 81%
    16:00 +10°C° 0.3 mm 0 mps 744 mmHg 89%
    17:00 +11°C° 0.6 mm 1 mps 743 mmHg 91%
    18:00 +10°C° 0.6 mm 1 mps 743 mmHg 93%
    19:00 +10°C° 0.6 mm 1 mps 743 mmHg 95%
    20:00 +10°C° 0.2 mm 1 mps 743 mmHg 96%
    21:00 +9°C° 0.2 mm 2 mps 742 mmHg 96%
    22:00 +8°C° 0.2 mm 2 mps 742 mmHg 97%
    23:00 +8°C° 0 mm 2 mps 742 mmHg 97%

    28 February, Thursday

    Time Temperature Precipitation Wind Pressure Humidity
    00:00 +8°C° 0 mm 2 mps 741 mmHg 97%
    01:00 +8°C° 0 mm 3 mps 741 mmHg 97%
    02:00 +8°C° 0 mm 3 mps 740 mmHg 97%
    03:00 +8°C° 0 mm 3 mps 740 mmHg 97%
    04:00 +8°C° 0 mm 3 mps 739 mmHg 97%
    05:00 +8°C° 0 mm 2 mps 739 mmHg 97%
    06:00 +8°C° 0 mm 2 mps 739 mmHg 96%
    07:00 +7°C° 0 mm 2 mps 739 mmHg 96%
    08:00 +11°C° 0 mm 1 mps 739 mmHg 90%
    09:00 +13°C° 0 mm 1 mps 739 mmHg 83%
    10:00 +15°C° 0 mm 1 mps 739 mmHg 77%
    11:00 +16°C° 0 mm 1 mps 739 mmHg 72%
    12:00 +17°C° 0 mm 0 mps 738 mmHg 68%
    13:00 +18°C° 0 mm 0 mps 738 mmHg 64%
    14:00 +19°C° 0.1 mm 1 mps 737 mmHg 70%
    15:00 +16°C° 0.1 mm 2 mps 737 mmHg 77%
    16:00 +15°C° 0.1 mm 2 mps 737 mmHg 84%
    17:00 +14°C° 0.8 mm 2 mps 737 mmHg 87%
    18:00 +14°C° 0.8 mm 2 mps 737 mmHg 91%
    19:00 +13°C° 0.8 mm 2 mps 737 mmHg 94%
    20:00 +13°C° 0.6 mm 2 mps 737 mmHg 95%
    21:00 +13°C° 0.6 mm 2 mps 737 mmHg 95%
    22:00 +13°C° 0.6 mm 2 mps 738 mmHg 96%
    23:00 +12°C° 0.1 mm 3 mps 738 mmHg 95%

    1 March, Friday

    Time Temperature Precipitation Wind Pressure Humidity
    00:00 +11°C° 0.1 mm 4 mps 738 mmHg 94%
    01:00 +11°C° 0.1 mm 4 mps 738 mmHg 93%
    02:00 +8°C° 0 mm 4 mps 738 mmHg 92%
    03:00 +7°C° 0 mm 4 mps 738 mmHg 92%
    04:00 +5°C° 0 mm 4 mps 738 mmHg 91%
    05:00 +5°C° 0 mm 4 mps 739 mmHg 90%
    06:00 +4°C° 0 mm 4 mps 739 mmHg 90%
    07:00 +4°C° 0 mm 4 mps 740 mmHg 89%
    08:00 +4°C° 0 mm 4 mps 740 mmHg 86%
    09:00 +5°C° 0 mm 4 mps 741 mmHg 82%
    10:00 +5°C° 0 mm 4 mps 742 mmHg 79%
    11:00 +6°C° 0 mm 4 mps 741 mmHg 77%
    12:00 +8°C° 0 mm 3 mps 741 mmHg 75%
    13:00 +8°C° 0 mm 3 mps 741 mmHg 73%
    14:00 +9°C° 0 mm 3 mps 741 mmHg 73%
    15:00 +9°C° 0 mm 2 mps 741 mmHg 74%
    16:00 +9°C° 0 mm 2 mps 741 mmHg 75%
    17:00 +8°C° 0 mm 2 mps 741 mmHg 80%
    18:00 +8°C° 0 mm 2 mps 741 mmHg 85%
    19:00 +7°C° 0 mm 2 mps 741 mmHg 90%
    20:00 +7°C° 0.1 mm 2 mps 741 mmHg 90%
    21:00 +7°C° 0.1 mm 2 mps 741 mmHg 91%
    22:00 +7°C° 0.1 mm 2 mps 742 mmHg 91%
    23:00 +7°C° 0.3 mm 3 mps 741 mmHg 92%
    Show more